Location: Santa Cristina
(46.5667°N, 11.7167°E)
Time: 05:19:33
(UTC+00:00)

X-37B - Pass Details

Date: 21 April 2021
Orbit: 386 x 389 km, 45.0° (Epoch: 08 May)

Event Time Altitude Azimuth Distance (km) Brightness Sun altitude
Exits shadow 03:33:22 - 266° (W) 1,504 3.0 -7.5°
Reaches altitude 10° 03:33:36 10° 265° (W) 1,415 2.8 -7.5°
Maximum altitude 03:36:45 66° 183° (S) 425 0.6 -7.0°
Drops below altitude 10° 03:39:55 10° 100° (E) 1,412 4.4 -6.5°
Sets 03:41:59 0° 98° (E) 2,266 5.6 -6.2°
